Location: Kershaw
(34.5481°N, 80.5823°W)
Time: 03:31:59
(UTC+00:00)

Explorer 7 - Pass Details

Date: 05 October 2022
Orbit: 481 x 665 km, 50.3° (Epoch: 01 December)

Event Time Altitude Azimuth Distance (km) Brightness Sun altitude
Rises 18:03:23 0° 307° (NW) 2,994 10.5 48.6°
Reaches altitude 10° 18:07:33 10° 341° (NNW) 2,059 9.5 48.3°
Maximum altitude 18:09:03 11° 360° (N) 1,958 9.4 48.2°
Drops below altitude 10° 18:10:33 10° 19° (NNE) 2,034 9.4 48.1°
Sets 18:14:35 0° 54° (NE) 2,898 10.1 47.7°
